Location: ?????
(31.8092°N, 35.2590°E)
Time: 16:22:50
(UTC+00:00)

Cosmos 1992 Rocket - Pass Details

Date: 20 June 2021
Orbit: 758 x 766 km, 74.0° (Epoch: 04 August)

Event Time Altitude Azimuth Distance (km) Brightness Sun altitude
Exits shadow 19:57:49 60° 303° (WNW) 865 4.3 -29.5°
Drops below altitude 10° 20:02:43 10° 9° (N) 2,300 7.1 -30.0°
Sets 20:05:08 0° 13° (NNE) 3,230 7.9 -30.2°
